Regional Weather Roundup
Issued by NWS Charleston, WV

Home | Current Version | Previous Version | Text Only | Print | Product List | Glossary Off
Versions: 1 2 3 4 5 6 7 8 9 10 11 12 13 14 15 16 17 18 19 20 21 22 23 24 25 26 27 28 29 30 31 32 33 34 35 36 37 38 39 40 41 42 43 44 45 46 47 48 49 50

000
ASUS41 KRLX 281210
RWRRLX
West Virginia Regional Weather Roundup
National Weather Service Charleston WV
800 AM EDT TUE JUL 28 2015

Note: "fair" indicates few or no clouds below 12,000 feet with no
significant weather and/or obstructions to visibility.

WVZ003-281300-
Northern Panhandle of West Virginia

CITY           SKY/WX    TMP DP  RH WIND       PRES   REMARKS
WHEELING       SUNNY     70  66  87 E5        30.04S FOG
$$

WVZ009-281300-
Northwest West Virginia

CITY           SKY/WX    TMP DP  RH WIND       PRES   REMARKS
PARKERSBURG    FOG       71  70  96 CALM      30.04S VSB 1/4
$$

WVZ006-281300-
Western West Virginia

CITY           SKY/WX    TMP DP  RH WIND       PRES   REMARKS
HUNTINGTON     FOG       71  71 100 CALM      30.01R VSB<1/4
$$

WVZ015-281300-
West Central West Virginia

CITY           SKY/WX    TMP DP  RH WIND       PRES   REMARKS
CHARLESTON     FOG       70  69  97 CALM      30.03R VSB 1
$$

WVZ022-031-281300-
North Central West Virginia

CITY           SKY/WX    TMP DP  RH WIND       PRES   REMARKS
CLARKSBURG     SUNNY     71  68  90 CALM      30.04R FOG
MORGANTOWN     SUNNY     75  66  73 CALM      30.05S
$$

WVZ025-035-042-045-281300-
Southern West Virginia

CITY           SKY/WX    TMP DP  RH WIND       PRES   REMARKS
BECKLEY        MOSUNNY   71  67  87 SE3       30.10R
LOGAN          FOG       70  70 100 CALM      30.02R VSB<1/4
BLUEFIELD      SUNNY     72  67  84 CALM      30.13R
LEWISBURG      FOG       67  65  94 CALM      30.10R VSB 1/4
$$

WVZ047-281300-
Northern Mountains of West Virginia

CITY           SKY/WX    TMP DP  RH WIND       PRES   REMARKS
ELKINS         CLOUDY    68  65  90 SW3       30.09R
$$

WVZ052-281300-
Eastern Panhandle of West Virginia

CITY           SKY/WX    TMP DP  RH WIND       PRES   REMARKS
MARTINSBURG    MOSUNNY   73  70  90 NE3       30.04S FOG
PETERSBURG     CLOUDY   N/A N/A N/A CALM      30.07S HAZE
$$



USA.gov is the U.S. government's official web portal to all federal, state and local government web resources and services.